Location: Fours
(44.3167°N, 6.7000°E)
Time: 11:42:18
(UTC+00:00)

Cosmos 2227 - Pass Details

Date: 07 December 2023
Orbit: 836 x 859 km, 71.0° (Epoch: 21 February)

Event Time Altitude Azimuth Distance (km) Brightness Sun altitude
Rises 17:34:59 0° 224° (SW) 3,422 8.4 -17.4°
Reaches altitude 10° 17:37:34 10° 231° (SW) 2,488 7.6 -17.8°
Maximum altitude 17:42:59 43° 302° (WNW) 1,184 5.3 -18.8°
Drops below altitude 10° 17:48:27 10° 14° (NNE) 2,493 6.4 -19.7°
Enters shadow 17:48:39 - 15° (NNE) 2,564 6.4 -19.7°
